Location: Unspecified
(41.5000°N, 0.0000°E)
Time: 10:27:55
(UTC+00:00)

Vanguard 1 - Pass Details

Date: 19 June 2019
Orbit: 655 x 3829 km, 34.2° (Epoch: 16 August)

Event Time Altitude Azimuth Distance (km) Brightness Sun altitude
Exits shadow 02:29:43 19° 208° (SSW) 5,161 13.1 -16.5°
Maximum altitude 02:40:25 37° 158° (SSE) 3,226 12.4 -15.4°
Drops below altitude 10° 02:49:52 10° 96° (E) 3,836 13.5 -14.2°
Sets 02:52:38 0° 87° (E) 4,483 14.1 -13.9°
